Regional Weather Roundup
Issued by NWS Sioux Falls, SD

Home | Current Version | Previous Version | Text Only | Print | Product List | Glossary On
Versions: 1 2 3 4 5 6 7 8 9 10 11 12 13 14 15 16 17 18 19 20 21 22 23 24 25 26 27 28 29 30 31 32 33 34 35 36 37 38 39 40 41 42 43 44 45 46 47 48 49 50
000
ASUS43 KFSD 041010
RWRFSD

WEATHER ROUNDUP FOR SE SOUTH DAKOTA/SW MINNESOTA/NW IOWA
NATIONAL WEATHER SERVICE SIOUX FALLS SD
500 AM CDT TUE AUG 04 2015

NOTE: "FAIR" INDICATES FEW OR NO CLOUDS BELOW 12,000 FEET WITH NO
SIGNIFICANT WEATHER AND OR OBSTRUCTIONS TO VISIBILITY.


SDZ038>040-050-052>070-041100-
SOUTHEAST SOUTH DAKOTA

CITY           SKY/WX    TMP DP  RH WIND       PRES   REMARKS
BROOKINGS      CLEAR     55  48  76 CALM      30.00R
CHAMBERLAIN    CLOUDY    65  61  86 SE3       29.97R
HURON          MOCLDY    61  54  77 SE6       29.96R
MADISON        FAIR      55  55 100 CALM      30.00R
MITCHELL       CLOUDY    63  59  87 SE7       29.96R
SIOUX FALLS    CLOUDY    59  55  87 E6        29.98R
WINNER         TSTM      65  61  87 S8        29.99R FOG
YANKTON        CLOUDY    64  61  88 E6        29.96R
$$

MNZ071-072-080-081-089-090-097-098-041100-
SOUTHWEST MINNESOTA

CITY           SKY/WX    TMP DP  RH WIND       PRES   REMARKS
FAIRMONT       CLEAR     55  48  76 CALM      29.97S
JACKSON        CLEAR     54  54 100 CALM      29.99R
LUVERNE        PTCLDY    55  54  94 CALM      30.00R
MARSHALL       CLEAR     52  46  82 SW3       29.98R
MONTEVIDEO     CLEAR     52  46  82 CALM      29.97F
PIPESTONE      CLEAR     57  52  82 SE3       29.99R
REDWOOD FALLS  CLEAR     55  51  86 CALM      29.95F
TRACY          CLEAR     57  54  88 SW3       29.98S
WINDOM         CLEAR     52  48  87 CALM      29.99R
WORTHINGTON    CLEAR     54  48  82 CALM      30.00R
$$

IAZ001>003-012>014-020>022-031-032-NEZ013-014-SDZ071-041100-
NORTHWEST IOWA

CITY           SKY/WX    TMP DP  RH WIND       PRES   REMARKS
CHEROKEE       MOCLDY    59  59 100 CALM      29.99R
DENISON        CLOUDY    64  63  94 CALM      29.96R
ESTHERVILLE    CLEAR     53  52  96 N5        29.98S
LE MARS        CLOUDY    61  59  94 N3        29.99R
ORANGE CITY    MOCLDY    63  61  94 E3        29.99R
SHELDON        PTCLDY    57  55  94 E6        29.97S
SIOUX CITY     CLOUDY    66  61  84 CALM      29.97R
SPENCER        CLEAR     56  52  86 CALM      29.98R
STORM LAKE     MOCLDY    61  59  94 N6        29.99R
$$

ABBREVIATIONS USED IN REMARKS
   TC - TEMPERATURE IN CELSIUS
  WCI - WIND CHILL INDEX
   HX - HEAT INDEX
  VSB - VISIBILITY



USA.gov is the U.S. government's official web portal to all federal, state and local government web resources and services.